Regional Weather Roundup
Issued by NWS Bismarck, ND

Home | Current Version | Previous Version | Text Only | Print | Product List | Glossary On
Versions: 1 2 3 4 5 6 7 8 9 10 11 12 13 14 15 16 17 18 19 20 21 22 23 24 25 26 27 28 29 30 31 32 33 34 35 36 37 38 39 40 41 42 43 44 45 46 47 48 49 50
919
ASUS43 KBIS 110502
RWRBIS

NWR BROADCAST TEXT
NATIONAL WEATHER SERVICE BISMARCK ND
1100 PM CST WED FEB 10 2016

NOTE: "FAIR" INDICATES FEW OR NO CLOUDS BELOW 12,000 FEET WITH NO
SIGNIFICANT WEATHER AND/OR OBSTRUCTIONS TO VISIBILITY.


CITY           SKY/WX    TMP DP  RH WIND       PRES   REMARKS
WILLISTON      CLOUDY    26  22  84 SE5       30.14S
MINOT          CLOUDY    13   6  74 E5        30.18F WCI   5
MINOT AFB      CLOUDY    11   8  89 SE5       30.18F WCI   2
BISMARCK       CLOUDY    17  10  74 E7        30.22S WCI   8
DICKINSON      CLOUDY    23  20  88 SE6       30.09F WCI  16
GARRISON         N/A     12   9  87 E6        30.17F WCI   3
HETTINGER ARPT CLOUDY    28  23  81 E7        30.13S
JAMESTOWN      CLOUDY     8   1  73 E5        30.24S WCI   0
CARRINGTON     CLOUDY     9   5  85 SE5       30.26S WCI   0
HAZEN          CLOUDY    14   9  79 E6        30.20F WCI   5
LINTON         MOCLDY    14  12  92 E5        30.23S WCI   6
MANDAN         CLOUDY    14  10  85 E6        30.19F WCI   5
OAKES          CLOUDY     9   3  78 N3        30.27R
STANLEY        CLOUDY    14  14 100 SE6       30.15F WCI   5
WATFORD CITY   CLOUDY    25  21  86 SE3       30.14R
$$

CITY           SKY/WX    TMP DP  RH WIND       PRES   REMARKS
GRAND FORKS    PTCLDY     3  -4  72 CALM      30.31S
GRAND FORKS AF PTCLDY    -1  -6  79 N2        30.31R
DEVILS LAKE    FLURRIES   4   0  83 SE3       30.25S
FARGO          CLOUDY     9   0  67 N6        30.31R WCI  -1
CAVALIER       FAIR       0  -4  85 W5        30.30F WCI -10
GWINNER        CLOUDY    10   5  79 N8        30.27R WCI  -1
LANGDON        FAIR     -11 -15  84 S6        30.22F WCI -25
ROLLA          MOCLDY     0  -2  92 SW6       30.20F WCI -12
$$

CITY           SKY/WX    TMP DP  RH WIND       PRES   REMARKS
ABERDEEN       CLOUDY    13   7  77 NE6       30.27R WCI   4
MOBRIDGE       CLOUDY    21  15  78 NE6       30.18R WCI  13
BUFFALO          N/A     32  28  85 CALM      30.03F
RAPID CITY     CLOUDY    29  27  92 E3        30.14R
GLASGOW        CLOUDY    31  25  78 E7        30.11R
SIDNEY         CLOUDY    30  25  80 CALM      30.14S
WOLF POINT     CLOUDY    32  26  78 NE3       30.12F
GLENDIVE       CLOUDY    30  25  80 CALM      30.13F
MILES CITY     CLOUDY    33  29  85 E5        30.08F
BAKER          CLOUDY    32  27  81 CALM      30.11S
$$

CITY           SKY/WX    TMP DP  RH WIND       PRES   REMARKS
BILLINGS       CLOUDY    47  25  42 SW9       30.07S
GREAT FALLS    CLOUDY    50  25  37 SW16      30.03F
$$





USA.gov is the U.S. government's official web portal to all federal, state and local government web resources and services.